| time (UTC) | temp F | wind direction | speed MPH | gust MPH | rain 1hr in | rain 24hr in | rain mn in | humidity % | barometer mb |
| 20260506073325 | 43 | 27 | 5.0 | 12.0 | 0.07 | 1.58 | 0.42 | 94 | 1008.7 |
| 20260506072837 | 43 | 31 | 7.0 | 13.0 | 0.06 | 1.57 | 0.41 | 94 | 1008.9 |
| 20260506072317 | 43 | 31 | 7.0 | 13.0 | 0.05 | 1.56 | 0.40 | 94 | 1009.1 |
| 20260506071850 | 43 | 316 | 5.0 | 12.0 | 0.05 | 1.56 | 0.40 | 94 | 1009.2 |
| 20260506071326 | 43 | 319 | 5.0 | 13.0 | 0.05 | 1.56 | 0.40 | 94 | 1009.1 |
| 20260506070818 | 44 | 13 | 6.0 | 14.0 | 0.04 | 1.55 | 0.39 | 94 | 1009.0 |
| 20260506070352 | 44 | 46 | 7.0 | 15.0 | 0.03 | 1.54 | 0.38 | 95 | 1008.9 |
| 20260506062316 | 46 | 349 | 5.0 | 14.0 | 0.06 | 1.51 | 0.35 | 96 | 1008.5 |
| 20260506061829 | 46 | 321 | 7.0 | 14.0 | 0.06 | 1.51 | 0.35 | 97 | 1008.4 |
| 20260506061322 | 46 | 354 | 5.0 | 13.0 | 0.07 | 1.51 | 0.35 | 97 | 1008.3 |
| 20260506060815 | 46 | 346 | 7.0 | 13.0 | 0.08 | 1.51 | 0.35 | 97 | 1008.2 |
| 20260506060328 | 47 | 6 | 4.0 | 13.0 | 0.10 | 1.51 | 0.35 | 97 | 1008.1 |
| 20260506051319 | 47 | 39 | 10.0 | 20.0 | 0.22 | 1.44 | 0.28 | 97 | 1007.8 |
| 20260506050816 | 47 | 31 | 11.0 | 20.0 | 0.21 | 1.43 | 0.27 | 97 | 1007.5 |
| 20260506050328 | 47 | 68 | 10.0 | 15.0 | 0.22 | 1.41 | 0.25 | 97 | 1007.9 |
| 20260506044827 | 47 | 32 | 6.0 | 14.0 | 0.22 | 1.37 | 0.21 | 97 | 1008.5 |
| 20260506044339 | 47 | 356 | 5.0 | 13.0 | 0.21 | 1.34 | 0.18 | 97 | 1008.4 |
| 20260506043811 | 48 | 21 | 6.0 | 16.0 | 0.25 | 1.32 | 0.16 | 97 | 1008.2 |
| 20260506043324 | 48 | 23 | 9.0 | 15.0 | 0.25 | 1.29 | 0.13 | 97 | 1007.8 |
| 20260506042821 | 48 | 37 | 9.0 | 14.0 | 0.24 | 1.27 | 0.11 | 97 | 1007.5 |
| 20260506042313 | 48 | 345 | 8.0 | 17.0 | 0.24 | 1.25 | 0.09 | 97 | 1007.5 |
| 20260506041826 | 48 | 22 | 11.0 | 17.0 | 0.24 | 1.24 | 0.08 | 97 | 1007.1 |
| 20260506041339 | 49 | 358 | 8.0 | 12.0 | 0.25 | 1.22 | 0.06 | 97 | 1007.4 |
| 20260506040851 | 49 | 43 | 6.0 | 12.0 | 0.25 | 1.21 | 0.05 | 97 | 1007.3 |
| 20260506040322 | 49 | 23 | 8.0 | 12.0 | 0.23 | 1.19 | 0.03 | 97 | 1007.7 |
| 20260506035815 | 49 | 29 | 7.0 | 12.0 | 0.22 | 1.17 | 0.01 | 97 | 1007.8 |
| 20260506035328 | 49 | 20 | 5.0 | 11.0 | 0.21 | 1.16 | 0.00 | 97 | 1007.8 |
| 20260506034841 | 49 | 22 | 5.0 | 11.0 | 0.20 | 1.15 | 1.15 | 97 | 1007.7 |
| 20260506034312 | 49 | 341 | 5.0 | 9.0 | 0.18 | 1.13 | 1.13 | 97 | 1007.9 |
| 20260506033830 | 49 | 351 | 3.0 | 10.0 | 0.12 | 1.07 | 1.07 | 97 | 1008.3 |
| 20260506033343 | 49 | 328 | 6.0 | 10.0 | 0.09 | 1.04 | 1.04 | 97 | 1007.8 |
| 20260506032814 | 50 | 24 | 4.0 | 10.0 | 0.08 | 1.03 | 1.03 | 97 | 1007.5 |
| 20260506032327 | 50 | 27 | 5.0 | 10.0 | 0.06 | 1.01 | 1.01 | 97 | 1007.4 |
| 20260506031820 | 50 | 36 | 6.0 | 9.0 | 0.04 | 0.99 | 0.99 | 97 | 1007.2 |
| 20260506031333 | 50 | 41 | 4.0 | 11.0 | 0.04 | 0.97 | 0.97 | 97 | 1007.3 |
| 20260506030825 | 50 | 27 | 6.0 | 11.0 | 0.05 | 0.96 | 0.96 | 97 | 1007.2 |
| 20260506030318 | 50 | 33 | 7.0 | 11.0 | 0.08 | 0.96 | 0.96 | 97 | 1007.2 |
| 20260506025830 | 50 | 51 | 5.0 | 11.0 | 0.08 | 0.95 | 0.95 | 97 | 1007.2 |
| 20260506025327 | 50 | 34 | 6.0 | 11.0 | 0.09 | 0.95 | 0.95 | 97 | 1007.3 |
| 20260506024840 | 50 | 49 | 6.0 | 11.0 | 0.10 | 0.95 | 0.95 | 97 | 1007.4 |
| 20260506024332 | 50 | 72 | 6.0 | 13.0 | 0.12 | 0.95 | 0.95 | 97 | 1007.4 |
| 20260506023844 | 50 | 44 | 6.0 | 13.0 | 0.14 | 0.95 | 0.95 | 97 | 1007.4 |
| 20260506023316 | 50 | 333 | 6.0 | 12.0 | 0.15 | 0.95 | 0.95 | 97 | 1007.4 |
| 20260506022828 | 50 | 40 | 5.0 | 11.0 | 0.18 | 0.95 | 0.95 | 97 | 1007.6 |
| 20260506022322 | 50 | 33 | 7.0 | 11.0 | 0.20 | 0.95 | 0.95 | 97 | 1007.4 |
| 20260506021814 | 50 | 49 | 6.0 | 11.0 | 0.20 | 0.94 | 0.94 | 97 | 1007.6 |
| 20260506021327 | 50 | 5 | 5.0 | 10.0 | 0.20 | 0.93 | 0.93 | 97 | 1007.8 |
| 20260506020820 | 50 | 37 | 7.0 | 10.0 | 0.17 | 0.90 | 0.91 | 96 | 1008.0 |
| 20260506020317 | 51 | 360 | 4.0 | 10.0 | 0.15 | 0.88 | 0.88 | 96 | 1008.2 |
| 20260506015829 | 51 | 30 | 6.0 | 10.0 | 0.14 | 0.87 | 0.87 | 97 | 1008.3 |
| 20260506015322 | 51 | 345 | 5.0 | 8.0 | 0.14 | 0.86 | 0.86 | 97 | 1008.3 |
| 20260506014816 | 51 | 338 | 4.0 | 8.0 | 0.14 | 0.85 | 0.85 | 97 | 1008.2 |
| 20260506014328 | 51 | 327 | 4.0 | 7.0 | 0.15 | 0.83 | 0.83 | 96 | 1008.1 |
| 20260506013821 | 51 | 360 | 4.0 | 8.0 | 0.14 | 0.81 | 0.81 | 96 | 1008.1 |
| 20260506013314 | 52 | 333 | 3.0 | 10.0 | 0.14 | 0.79 | 0.79 | 96 | 1008.1 |
| 20260506012811 | 52 | 39 | 4.0 | 10.0 | 0.14 | 0.77 | 0.77 | 96 | 1007.9 |
| 20260506012324 | 52 | 338 | 2.0 | 7.0 | 0.14 | 0.75 | 0.75 | 96 | 1007.9 |
| 20260506011816 | 52 | 2 | 3.0 | 7.0 | 0.14 | 0.74 | 0.74 | 96 | 1007.6 |
| 20260506011329 | 53 | 7 | 3.0 | 12.0 | 0.13 | 0.73 | 0.73 | 95 | 1007.7 |
| 20260506010822 | 53 | 24 | 4.0 | 10.0 | 0.13 | 0.73 | 0.73 | 95 | 1007.5 |
| 20260506010315 | 54 | 27 | 5.0 | 10.0 | 0.13 | 0.73 | 0.73 | 94 | 1007.7 |
| 20260506005828 | 55 | 23 | 4.0 | 9.0 | 0.13 | 0.73 | 0.73 | 94 | 1007.6 |
| 20260506005321 | 57 | 352 | 1.0 | 4.0 | 0.13 | 0.72 | 0.72 | 95 | 1007.8 |
| 20260506004818 | 58 | 272 | 0.0 | 4.0 | 0.12 | 0.71 | 0.71 | 97 | 1007.8 |
| 20260506004351 | 58 | 251 | 1.0 | 5.0 | 0.10 | 0.68 | 0.68 | 97 | 1007.8 |
| 20260506003822 | 59 | 255 | 3.0 | 5.0 | 0.11 | 0.67 | 0.67 | 97 | 1007.9 |
| 20260506003315 | 59 | 262 | 2.0 | 4.0 | 0.10 | 0.65 | 0.65 | 97 | 1008.0 |
| 20260506002848 | 59 | 259 | 3.0 | 5.0 | 0.08 | 0.63 | 0.63 | 96 | 1007.9 |
| 20260506002320 | 59 | 248 | 3.0 | 5.0 | 0.06 | 0.61 | 0.61 | 96 | 1007.9 |
| 20260506001812 | 59 | 246 | 0.0 | 2.0 | 0.06 | 0.60 | 0.60 | 96 | 1007.5 |
| 20260506001326 | 59 | 247 | 1.0 | 4.0 | 0.06 | 0.60 | 0.60 | 96 | 1007.3 |
| 20260506000819 | 59 | 214 | 1.0 | 6.0 | 0.06 | 0.60 | 0.60 | 96 | 1007.1 |
| 20260506000316 | 59 | 211 | 2.0 | 6.0 | 0.07 | 0.60 | 0.60 | 96 | 1007.1 |
| 20260505235828 | 59 | 238 | 2.0 | 8.0 | 0.07 | 0.60 | 0.60 | 96 | 1007.1 |
| 20260505235321 | 59 | 231 | 3.0 | 8.0 | 0.06 | 0.59 | 0.59 | 96 | 1007.1 |
| 20260505234814 | 59 | 221 | 4.0 | 9.0 | 0.07 | 0.59 | 0.59 | 96 | 1007.1 |
| 20260505234327 | 59 | 198 | 4.0 | 10.0 | 0.07 | 0.58 | 0.58 | 96 | 1007.3 |
| 20260505233819 | 60 | 136 | 2.0 | 11.0 | 0.06 | 0.56 | 0.56 | 96 | 1007.4 |
| 20260505233312 | 60 | 197 | 6.0 | 11.0 | 0.05 | 0.55 | 0.55 | 97 | 1007.4 |
| 20260505232845 | 60 | 241 | 3.0 | 6.0 | 0.06 | 0.55 | 0.55 | 97 | 1007.3 |
| 20260505232317 | 60 | 188 | 4.0 | 10.0 | 0.06 | 0.55 | 0.55 | 97 | 1007.3 |
| 20260505231814 | 60 | 209 | 5.0 | 14.0 | 0.06 | 0.54 | 0.54 | 97 | 1007.3 |
| 20260505231327 | 60 | 224 | 6.0 | 14.0 | 0.06 | 0.54 | 0.54 | 97 | 1007.4 |
| 20260505230819 | 60 | 241 | 2.0 | 5.0 | 0.07 | 0.54 | 0.54 | 97 | 1007.4 |
| 20260505230333 | 60 | 216 | 2.0 | 4.0 | 0.07 | 0.53 | 0.53 | 97 | 1007.4 |
| 20260505225824 | 60 | 207 | 2.0 | 6.0 | 0.08 | 0.53 | 0.53 | 97 | 1007.4 |
| 20260505225337 | 60 | 224 | 2.0 | 6.0 | 0.10 | 0.53 | 0.53 | 97 | 1007.6 |
| 20260505224829 | 60 | 214 | 2.0 | 6.0 | 0.11 | 0.52 | 0.52 | 97 | 1007.5 |
| 20260505224322 | 60 | 200 | 2.0 | 8.0 | 0.12 | 0.51 | 0.51 | 97 | 1007.6 |
| 20260505223815 | 60 | 226 | 3.0 | 8.0 | 0.16 | 0.50 | 0.50 | 97 | 1007.6 |
| 20260505223311 | 60 | 184 | 1.0 | 7.0 | 0.18 | 0.50 | 0.50 | 97 | 1007.7 |
| 20260505222825 | 60 | 154 | 3.0 | 7.0 | 0.18 | 0.49 | 0.49 | 97 | 1007.8 |
| 20260505222317 | 60 | 172 | 3.0 | 7.0 | 0.19 | 0.49 | 0.49 | 97 | 1007.8 |
| 20260505221910 | 60 | 215 | 2.0 | 6.0 | 0.18 | 0.48 | 0.48 | 97 | 1007.9 |
| 20260505221338 | 60 | 243 | 2.0 | 6.0 | 0.17 | 0.47 | 0.47 | 96 | 1008.0 |
| 20260505220830 | 60 | 225 | 2.0 | 5.0 | 0.18 | 0.47 | 0.47 | 96 | 1008.1 |
| 20260505220323 | 60 | 207 | 3.0 | 7.0 | 0.17 | 0.46 | 0.46 | 96 | 1008.1 |
| 20260505215816 | 60 | 219 | 3.0 | 7.0 | 0.16 | 0.45 | 0.45 | 96 | 1008.2 |
| 20260505215325 | 60 | 208 | 4.0 | 7.0 | 0.14 | 0.43 | 0.43 | 96 | 1008.2 |
| 20260505214818 | 60 | 248 | 1.0 | 8.0 | 0.12 | 0.41 | 0.41 | 96 | 1008.2 |
| 20260505214315 | 60 | 213 | 3.0 | 6.0 | 0.09 | 0.38 | 0.38 | 96 | 1008.2 |
| 20260505213828 | 60 | 168 | 2.0 | 7.0 | 0.05 | 0.34 | 0.34 | 96 | 1008.2 |
| 20260505213321 | 60 | 215 | 3.0 | 8.0 | 0.03 | 0.32 | 0.32 | 96 | 1008.1 |
| 20260505212828 | 60 | 213 | 4.0 | 9.0 | 0.02 | 0.31 | 0.31 | 96 | 1008.0 |
| 20260505212321 | 60 | 210 | 5.0 | 9.0 | 0.01 | 0.30 | 0.30 | 95 | 1008.1 |
| 20260505211834 | 60 | 219 | 3.0 | 10.0 | 0.01 | 0.30 | 0.30 | 95 | 1008.1 |
| 20260505211325 | 60 | 217 | 4.0 | 10.0 | 0.02 | 0.30 | 0.30 | 95 | 1008.1 |
| 20260505210818 | 60 | 221 | 5.0 | 8.0 | 0.01 | 0.29 | 0.29 | 95 | 1008.1 |
| 20260505210315 | 60 | 224 | 3.0 | 7.0 | 0.01 | 0.29 | 0.29 | 95 | 1008.1 |
| 20260505205848 | 60 | 216 | 4.0 | 9.0 | 0.02 | 0.29 | 0.29 | 95 | 1008.1 |
| 20260505205319 | 60 | 226 | 3.0 | 8.0 | 0.03 | 0.29 | 0.29 | 95 | 1008.2 |
| 20260505204811 | 60 | 225 | 2.0 | 7.0 | 0.03 | 0.29 | 0.29 | 95 | 1008.2 |
| 20260505204323 | 60 | 148 | 2.0 | 7.0 | 0.04 | 0.29 | 0.29 | 95 | 1008.2 |
| 20260505203816 | 60 | 209 | 2.0 | 8.0 | 0.04 | 0.29 | 0.29 | 95 | 1008.1 |
| 20260505203350 | 60 | 179 | 3.0 | 8.0 | 0.05 | 0.29 | 0.29 | 95 | 1008.2 |
| 20260505202822 | 60 | 204 | 1.0 | 7.0 | 0.06 | 0.29 | 0.29 | 95 | 1008.3 |
| 20260505202314 | 61 | 217 | 3.0 | 6.0 | 0.07 | 0.29 | 0.29 | 95 | 1008.4 |
| 20260505201810 | 61 | 202 | 3.0 | 6.0 | 0.07 | 0.29 | 0.29 | 94 | 1008.3 |
| 20260505201323 | 61 | 214 | 2.0 | 6.0 | 0.07 | 0.28 | 0.28 | 94 | 1008.3 |
| 20260505200836 | 61 | 145 | 3.0 | 5.0 | 0.08 | 0.28 | 0.28 | 94 | 1008.3 |
| 20260505200328 | 60 | 232 | 2.0 | 7.0 | 0.08 | 0.28 | 0.28 | 94 | 1008.5 |
| 20260505195821 | 61 | 195 | 3.0 | 7.0 | 0.08 | 0.27 | 0.27 | 94 | 1008.4 |
| 20260505195314 | 61 | 221 | 2.0 | 6.0 | 0.08 | 0.26 | 0.26 | 93 | 1008.4 |
| 20260505194827 | 61 | 207 | 3.0 | 6.0 | 0.08 | 0.27 | 0.26 | 93 | 1008.5 |
| 20260505194319 | 61 | 219 | 0.0 | 3.0 | 0.07 | 0.26 | 0.25 | 93 | 1008.6 |
| 20260505193812 | 61 | 217 | 1.0 | 3.0 | 0.07 | 0.26 | 0.25 | 92 | 1008.9 |
| 20260505193328 | 61 | 228 | 1.0 | 6.0 | 0.06 | 0.25 | 0.24 | 92 | 1009.0 |
| 20260505192821 | 61 | 234 | 2.0 | 8.0 | 0.05 | 0.24 | 0.23 | 91 | 1009.0 |
| 20260505192315 | 61 | 259 | 4.0 | 12.0 | 0.04 | 0.23 | 0.22 | 90 | 1009.1 |
| 20260505191827 | 61 | 217 | 5.0 | 14.0 | 0.04 | 0.23 | 0.22 | 89 | 1009.1 |
| 20260505191320 | 62 | 238 | 7.0 | 14.0 | 0.03 | 0.22 | 0.21 | 88 | 1009.1 |
| 20260505190813 | 62 | 232 | 7.0 | 13.0 | 0.02 | 0.21 | 0.20 | 87 | 1009.1 |
| 20260505190325 | 63 | 254 | 6.0 | 14.0 | 0.02 | 0.21 | 0.20 | 86 | 1009.1 |
| 20260505185818 | 63 | 243 | 9.0 | 14.0 | 0.01 | 0.20 | 0.19 | 84 | 1009.1 |
| 20260505185336 | 64 | 218 | 5.0 | 12.0 | 0.00 | 0.19 | 0.18 | 82 | 1009.1 |
| 20260505184827 | 64 | 231 | 5.0 | 12.0 | 0.00 | 0.21 | 0.18 | 80 | 1009.0 |
| 20260505184340 | 64 | 254 | 4.0 | 12.0 | 0.00 | 0.21 | 0.18 | 80 | 1009.0 |
| 20260505183812 | 65 | 231 | 6.0 | 12.0 | 0.00 | 0.21 | 0.18 | 78 | 1008.9 |
| 20260505183325 | 65 | 229 | 5.0 | 11.0 | 0.00 | 0.21 | 0.18 | 78 | 1009.0 |
| 20260505182838 | 65 | 207 | 5.0 | 14.0 | 0.00 | 0.21 | 0.18 | 78 | 1009.0 |
| 20260505182329 | 65 | 235 | 6.0 | 14.0 | 0.00 | 0.21 | 0.18 | 79 | 1008.9 |
| 20260505181822 | 65 | 207 | 5.0 | 10.0 | 0.00 | 0.21 | 0.18 | 78 | 1009.0 |
| 20260505181315 | 65 | 149 | 4.0 | 13.0 | 0.00 | 0.21 | 0.18 | 79 | 1009.0 |
| 20260505180811 | 65 | 200 | 7.0 | 13.0 | 0.00 | 0.21 | 0.18 | 78 | 1009.1 |
| 20260505180324 | 65 | 233 | 5.0 | 12.0 | 0.00 | 0.21 | 0.18 | 79 | 1009.1 |
| 20260505175817 | 65 | 224 | 7.0 | 12.0 | 0.00 | 0.21 | 0.18 | 78 | 1009.2 |
| 20260505175330 | 65 | 198 | 4.0 | 9.0 | 0.00 | 0.21 | 0.18 | 79 | 1009.2 |
| 20260505174822 | 65 | 245 | 4.0 | 10.0 | 0.00 | 0.21 | 0.18 | 78 | 1009.2 |
| 20260505174315 | 65 | 222 | 5.0 | 11.0 | 0.00 | 0.21 | 0.18 | 78 | 1009.1 |
| 20260505173828 | 65 | 222 | 7.0 | 11.0 | 0.00 | 0.21 | 0.18 | 77 | 1009.1 |
| 20260505173341 | 65 | 220 | 8.0 | 11.0 | 0.00 | 0.21 | 0.18 | 77 | 1009.3 |
| 20260505172811 | 65 | 195 | 4.0 | 12.0 | 0.00 | 0.21 | 0.18 | 79 | 1009.4 |
| 20260505172329 | 65 | 169 | 6.0 | 15.0 | 0.00 | 0.21 | 0.18 | 78 | 1009.3 |
| 20260505171822 | 65 | 288 | 7.0 | 15.0 | 0.00 | 0.21 | 0.18 | 78 | 1009.2 |
| 20260505171334 | 65 | 203 | 5.0 | 14.0 | 0.00 | 0.21 | 0.18 | 79 | 1009.3 |
| 20260505170826 | 65 | 214 | 7.0 | 14.0 | 0.00 | 0.21 | 0.18 | 78 | 1009.4 |
| 20260505170339 | 65 | 210 | 5.0 | 11.0 | 0.00 | 0.21 | 0.18 | 79 | 1009.4 |
| 20260505165811 | 65 | 231 | 7.0 | 11.0 | 0.00 | 0.21 | 0.18 | 79 | 1009.5 |
| 20260505165324 | 65 | 200 | 5.0 | 10.0 | 0.00 | 0.21 | 0.18 | 80 | 1009.5 |
| 20260505164817 | 65 | 219 | 5.0 | 10.0 | 0.00 | 0.21 | 0.18 | 80 | 1009.4 |
| 20260505164330 | 65 | 221 | 3.0 | 10.0 | 0.00 | 0.21 | 0.18 | 81 | 1009.5 |
| 20260505163827 | 64 | 218 | 4.0 | 10.0 | 0.00 | 0.21 | 0.18 | 81 | 1009.5 |
| 20260505163339 | 64 | 255 | 6.0 | 10.0 | 0.00 | 0.21 | 0.18 | 80 | 1009.4 |
| 20260505162811 | 64 | 222 | 4.0 | 8.0 | 0.00 | 0.21 | 0.18 | 81 | 1009.5 |
| 20260505162324 | 64 | 247 | 4.0 | 11.0 | 0.00 | 0.21 | 0.18 | 81 | 1009.4 |
| 20260505161817 | 64 | 205 | 5.0 | 11.0 | 0.00 | 0.21 | 0.18 | 80 | 1009.5 |
| 20260505161330 | 64 | 224 | 5.0 | 9.0 | 0.00 | 0.21 | 0.18 | 80 | 1009.5 |
| 20260505160822 | 64 | 269 | 6.0 | 10.0 | 0.00 | 0.21 | 0.18 | 80 | 1009.5 |
| 20260505160316 | 64 | 242 | 5.0 | 10.0 | 0.00 | 0.21 | 0.18 | 80 | 1009.6 |
| 20260505153312 | 65 | 213 | 4.0 | 10.0 | 0.00 | 0.21 | 0.18 | 82 | 1009.5 |
| 20260505152825 | 65 | 216 | 5.0 | 12.0 | 0.00 | 0.21 | 0.18 | 83 | 1009.4 |
| 20260505152318 | 65 | 210 | 6.0 | 13.0 | 0.00 | 0.21 | 0.18 | 82 | 1009.3 |
| 20260505151851 | 65 | 203 | 8.0 | 14.0 | 0.00 | 0.21 | 0.18 | 82 | 1009.2 |
| 20260505151323 | 65 | 217 | 6.0 | 13.0 | 0.00 | 0.21 | 0.18 | 83 | 1009.2 |
| 20260505150819 | 65 | 136 | 5.0 | 11.0 | 0.00 | 0.21 | 0.18 | 84 | 1009.2 |
| 20260505150312 | 65 | 223 | 5.0 | 10.0 | 0.00 | 0.21 | 0.18 | 85 | 1009.3 |
| 20260505140325 | 62 | 229 | 6.0 | 10.0 | 0.00 | 0.21 | 0.18 | 88 | 1008.8 |
| 20260505124821 | 57 | 215 | 1.0 | 3.0 | 0.01 | 0.21 | 0.18 | 97 | 1008.1 |
| 20260505124313 | 57 | 176 | 1.0 | 4.0 | 0.01 | 0.21 | 0.18 | 97 | 1008.4 |
| 20260505123827 | 57 | 216 | 1.0 | 4.0 | 0.02 | 0.21 | 0.18 | 97 | 1008.6 |
| 20260505123319 | 57 | 149 | 1.0 | 3.0 | 0.02 | 0.21 | 0.18 | 97 | 1008.7 |
| 20260505122850 | 57 | 210 | 1.0 | 5.0 | 0.03 | 0.21 | 0.18 | 97 | 1008.9 |
| 20260505122342 | 56 | 219 | 3.0 | 5.0 | 0.03 | 0.21 | 0.18 | 97 | 1008.7 |
| 20260505121833 | 56 | 223 | 2.0 | 4.0 | 0.04 | 0.21 | 0.18 | 97 | 1008.6 |
| 20260505121325 | 56 | 200 | 1.0 | 4.0 | 0.03 | 0.20 | 0.17 | 97 | 1008.4 |
| 20260505120821 | 56 | 142 | 2.0 | 5.0 | 0.03 | 0.20 | 0.17 | 97 | 1008.9 |
| 20260505120335 | 56 | 179 | 2.0 | 5.0 | 0.03 | 0.20 | 0.17 | 97 | 1008.9 |
| 20260505115826 | 56 | 180 | 2.0 | 6.0 | 0.03 | 0.20 | 0.17 | 97 | 1008.9 |
| 20260505115319 | 56 | 209 | 4.0 | 6.0 | 0.03 | 0.20 | 0.17 | 97 | 1009.1 |
| 20260505114812 | 56 | 208 | 2.0 | 6.0 | 0.03 | 0.20 | 0.17 | 96 | 1009.1 |
| 20260505114325 | 56 | 226 | 2.0 | 5.0 | 0.03 | 0.20 | 0.17 | 96 | 1009.1 |
| 20260505113817 | 56 | 208 | 1.0 | 4.0 | 0.02 | 0.19 | 0.16 | 96 | 1009.2 |
| 20260505113330 | 56 | 216 | 0.0 | 3.0 | 0.02 | 0.19 | 0.16 | 96 | 1009.1 |
| 20260505112827 | 56 | 233 | 2.0 | 5.0 | 0.01 | 0.18 | 0.15 | 96 | 1008.7 |
| 20260505112319 | 56 | 208 | 2.0 | 5.0 | 0.01 | 0.18 | 0.15 | 96 | 1008.6 |
| 20260505111811 | 56 | 205 | 3.0 | 6.0 | 0.00 | 0.17 | 0.14 | 96 | 1008.6 |
| 20260505111324 | 56 | 175 | 1.0 | 5.0 | 0.00 | 0.17 | 0.14 | 96 | 1008.4 |
| 20260505110817 | 56 | 200 | 1.0 | 4.0 | 0.01 | 0.17 | 0.14 | 96 | 1008.4 |
| 20260505110329 | 55 | 204 | 2.0 | 5.0 | 0.01 | 0.17 | 0.14 | 96 | 1008.3 |
| 20260505101827 | 56 | 221 | 0.0 | 0.0 | 0.12 | 0.17 | 0.14 | 95 | 1008.5 |
| 20260505101319 | 56 | 219 | 0.0 | 0.0 | 0.13 | 0.17 | 0.14 | 95 | 1008.7 |
| 20260505100816 | 56 | 141 | 0.0 | 0.0 | 0.13 | 0.16 | 0.13 | 95 | 1008.7 |
| 20260505100329 | 56 | 137 | 0.0 | 1.0 | 0.13 | 0.16 | 0.13 | 95 | 1009.0 |
| 20260505095822 | 56 | 224 | 0.0 | 1.0 | 0.13 | 0.16 | 0.13 | 95 | 1009.3 |
| 20260505095335 | 56 | 261 | 0.0 | 0.0 | 0.12 | 0.15 | 0.12 | 94 | 1009.5 |
| 20260505094847 | 56 | 257 | 0.0 | 0.0 | 0.12 | 0.15 | 0.12 | 94 | 1009.4 |
| 20260505094318 | 56 | 44 | 0.0 | 0.0 | 0.11 | 0.14 | 0.11 | 94 | 1009.5 |
| 20260505093852 | 56 | 58 | 0.0 | 0.0 | 0.10 | 0.13 | 0.10 | 93 | 1009.7 |
| 20260505093323 | 57 | 61 | 0.0 | 5.0 | 0.08 | 0.11 | 0.08 | 93 | 1009.8 |
| 20260505092816 | 57 | 280 | 0.0 | 3.0 | 0.06 | 0.09 | 0.06 | 92 | 1009.8 |
| 20260505092329 | 57 | 315 | 0.0 | 4.0 | 0.03 | 0.06 | 0.03 | 92 | 1009.7 |
| 20260505091826 | 58 | 61 | 0.0 | 5.0 | 0.01 | 0.04 | 0.01 | 92 | 1009.6 |
| 20260505091319 | 58 | 263 | 0.0 | 6.0 | 0.01 | 0.04 | 0.01 | 91 | 1009.6 |
| 20260505090832 | 58 | 240 | 0.0 | 3.0 | 0.00 | 0.03 | 0.00 | 90 | 1009.4 |
| 20260505090323 | 59 | 285 | 0.0 | 3.0 | 0.00 | 0.03 | 0.00 | 89 | 1009.2 |
| 20260505085816 | 59 | 84 | 0.0 | 0.0 | 0.00 | 0.03 | 0.00 | 88 | 1009.2 |
| 20260505085350 | 59 | 98 | 0.0 | 1.0 | 0.00 | 0.03 | 0.00 | 87 | 1009.0 |
| 20260505084821 | 59 | 30 | 0.0 | 1.0 | 0.00 | 0.03 | 0.00 | 87 | 1008.7 |
| 20260505084313 | 59 | 4 | 0.0 | 1.0 | 0.00 | 0.03 | 0.00 | 86 | 1008.6 |
| 20260505083826 | 60 | 297 | 0.0 | 8.0 | 0.00 | 0.03 | 0.00 | 86 | 1008.3 |
| 20260505083322 | 60 | 339 | 0.0 | 8.0 | 0.00 | 0.03 | 0.00 | 85 | 1008.3 |
| 20260505082815 | 60 | 202 | 0.0 | 5.0 | 0.00 | 0.03 | 0.00 | 84 | 1008.6 |
| 20260505082328 | 60 | 333 | 1.0 | 2.0 | 0.00 | 0.03 | 0.00 | 83 | 1008.0 |
| 20260505081821 | 60 | 349 | 0.0 | 0.0 | 0.00 | 0.03 | 0.00 | 83 | 1007.8 |
| 20260505081313 | 61 | 331 | 0.0 | 0.0 | 0.00 | 0.03 | 0.00 | 81 | 1007.6 |
| 20260505080826 | 61 | 331 | 0.0 | 0.0 | 0.00 | 0.03 | 0.00 | 79 | 1007.3 |
| 20260505080318 | 61 | 331 | 0.0 | 0.0 | 0.00 | 0.03 | 0.00 | 78 | 1007.1 |
| 20260505075810 | 62 | 324 | 0.0 | 5.0 | 0.00 | 0.03 | 0.00 | 78 | 1007.2 |
| 20260505075327 | 62 | 350 | 0.0 | 7.0 | 0.00 | 0.03 | 0.00 | 77 | 1007.4 |
| 20260505074840 | 62 | 340 | 2.0 | 7.0 | 0.00 | 0.03 | 0.00 | 74 | 1007.7 |